Probability
0 0 0 0 0 0 0 0 0 0 0 0 0 0 0 0 0 0 0 0 0 0 0 0 0 0 0 0 0 0 0 0 0 0 0 0 0 0 0 0 0 0 0
0 0 0 0 0 0 0 0 0 0 0 0 0 0 0 0 0 0 0 0 0 0 0 0 0 0 0 0 0 0 0 0 0 0 0 0 0 0 0 0 0 0 0
0 0 0 0 0 0 0 0 0 0 0 0 0 0 0 0 0 0 0 0 0 0 0 0 0 0 0 0 0 0 0 0 0 0 0 0 0 0 0 0 0 0 0
0 0 0 0 0 0 0 0 0 0 0 0 0 0 0 0 0 0 0 0 0 0 0 0 0 0 0 0 0 0 0 0 0 0 0 0 0 0 0 0 0 0 0
0 0 2 4 4 2 0 1 1 0 0 0 0 0 0 0 0 0 0 0 0 0 0 0 0 0 0 0 0 0 0 0 0 0 0 0 0 0 0 0 0 0 0
1 1 6 15 15 8 4 3 2 1 0 1 1 0 0 0 0 0 0 0 0 0 0 0 0 0 0 0 0 0 0 0 0 0 0 0 0 0 0 0 0 0 0
4 5 13 26 28 20 13 8 6 3 2 1 1 0 0 0 0 0 0 0 0 0 0 0 0 0 0 0 0 0 0 0 0 0 0 0 0 0 0 0 0 0 0
13 14 20 30 34 31 26 19 14 9 4 1 1 0 0 0 0 0 0 0 0 0 0 0 0 0 0 0 0 0 0 0 0 0 0 0 0 0 0 0 0 0 0
22 24 27 32 36 38 36 32 25 15 7 2 0 0 0 0 0 0 0 0 0 0 0 0 0 0 0 0 0 0 0 0 0 0 0 0 0 0 0 0 0 0 0
25 28 34 40 41 41 41 38 29 17 7 2 1 0 0 0 0 0 0 0 0 0 0 0 0 0 0 0 0 0 0 0 0 0 0 0 0 0 0 0 0 0 0
27 30 36 43 45 44 42 38 28 16 7 3 1 0 0 1 1 0 0 0 0 0 0 0 0 0 0 0 0 0 0 0 0 0 0 0 0 0 0 1 1 1 0
32 33 37 44 47 48 44 36 27 18 10 4 2 1 2 2 2 1 0 0 0 0 0 0 1 1 0 1 1 1 0 1 1 0 0 0 0 0 1 3 3 3 2
35 38 43 49 51 49 43 35 29 23 15 8 5 5 5 4 2 1 0 0 1 1 0 1 2 2 2 2 2 1 1 1 2 2 1 1 1 1 3 5 5 5 5
37 42 51 55 53 46 40 36 32 28 20 13 11 10 9 6 4 2 1 1 2 2 1 2 3 3 3 3 2 1 0 1 2 3 2 1 1 2 4 5 6 7 9
41 46 54 55 50 43 38 35 33 30 25 19 15 14 13 11 9 6 3 2 3 3 2 2 3 3 4 4 3 1 1 1 2 3 3 1 1 2 3 4 7 10 13
45 49 53 52 46 39 33 31 31 30 28 25 20 17 16 15 14 11 6 3 2 1 2 2 2 2 3 5 5 3 2 2 2 3 3 1 0 1 1 3 7 11 12
47 49 49 47 43 38 32 30 32 32 30 28 24 21 18 15 15 13 9 4 1 1 2 2 3 2 3 3 4 3 1 1 1 1 1 0 0 0 0 1 5 8 8
45 45 42 41 40 37 34 34 37 36 31 27 27 25 20 16 15 13 9 5 3 2 4 5 5 4 2 2 2 2 1 1 1 0 0 0 1 1 1 1 3 6 7
42 40 37 34 33 33 33 34 38 38 30 24 23 22 20 17 15 11 8 5 4 4 5 7 6 5 3 2 1 1 1 1 1 0 0 1 1 1 1 2 3 4 6
36 34 30 26 24 24 24 25 29 30 24 19 17 15 15 14 12 9 7 5 4 4 5 5 4 2 2 2 1 0 0 1 1 0 0 0 0 0 1 1 2 2 2
24 23 20 16 14 14 13 15 17 17 15 13 11 9 8 8 7 6 5 4 4 4 4 3 1 0 1 1 0 0 0 0 0 0 0 0 0 0 0 0 1 1 2
12 11 9 6 6 5 6 8 8 7 7 6 5 4 3 3 3 4 4 4 4 3 3 2 1 0 0 0 0 0 0 0 0 0 0 0 0 0 0 0 0 1 2
5 4 2 1 1 1 2 2 3 2 2 1 1 1 1 1 1 2 3 3 3 3 2 1 0 0 0 0 0 0 0 0 0 0 0 0 0 0 0 0 0 0 1
1 1 0 0 0 0 0 0 0 0 0 0 0 0 0 0 0 1 2 2 2 2 1 0 0 0 0 0 0 0 0 0 0 0 0 0 0 0 0 0 0 0 0
0 0 0 0 0 0 0 0 0 0 0 0 0 0 0 0 0 0 1 1 0 0 0 0 0 0 0 0 0 0 0 0 0 0 0 0 0 0 0 0 0 0 0
0 0 0 0 0 0 0 0 0 0 0 0 0 0 0 0 0 0 0 0 0 0 0 0 0 0 0 0 0 0 0 0 0 0 0 0 0 0 0 0 0 0 0
Wind_Speed
9 11 18 19 18 17 17 16 16 16 16 16 16 16 16 16 15 14 13 12 11 10 9 9 9 9 10 10 11 11 12 12 13 13 13 13 12 12 12 13 13 10 14
14 14 19 19 18 18 17 16 16 15 15 15 15 15 15 15 14 14 13 12 11 10 9 9 9 9 9 10 10 10 11 11 12 12 12 11 11 11 11 12 12 9 13
14 13 16 19 19 18 17 16 16 15 15 15 14 14 14 14 14 13 12 12 11 10 10 9 9 9 9 9 9 9 10 10 10 11 10 6 8 10 11 11 12 12 12
14 11 13 19 19 18 17 16 15 15 15 14 14 13 13 13 13 12 12 11 10 10 9 9 8 8 8 8 8 8 8 9 9 9 5 4 4 9 10 11 12 12 12
12 10 13 21 19 18 17 16 15 15 14 14 13 13 13 12 12 12 11 10 10 10 9 9 8 8 8 8 8 8 7 8 8 6 4 3 1 7 10 11 12 12 12
11 9 12 21 19 18 17 16 15 14 14 13 13 13 12 12 11 11 11 10 10 9 9 9 8 8 8 8 7 7 7 7 6 3 3 3 2 6 10 11 12 12 12
11 8 11 20 19 18 17 17 16 15 14 13 13 13 12 12 11 11 11 10 10 9 9 9 8 8 8 8 8 8 7 7 4 3 2 3 4 7 10 12 12 12 13
13 9 9 19 19 18 17 16 16 15 15 14 14 13 13 12 12 11 11 11 11 10 10 10 9 9 9 9 9 8 8 8 5 4 4 4 6 9 12 13 13 13 14
11 9 7 10 14 18 17 17 16 15 15 14 14 13 13 13 12 12 11 11 11 11 11 11 11 10 10 10 10 9 9 10 5 3 5 4 6 9 11 13 14 14 15
10 8 7 7 7 8 10 16 16 15 15 15 14 14 14 13 13 13 11 11 12 12 12 12 12 12 12 11 11 11 11 10 6 6 4 5 8 10 11 13 15 15 15
11 9 6 6 6 6 6 10 13 15 14 14 12 14 13 6 6 7 10 12 13 14 14 14 14 13 13 12 13 13 11 5 6 5 5 9 11 11 12 13 14 15 16
13 12 8 7 6 5 6 5 4 4 5 5 4 5 4 4 4 7 8 14 14 14 15 15 14 14 11 6 9 11 5 7 7 6 6 12 13 13 13 12 12 14 16
10 10 9 8 6 5 4 2 2 2 2 3 5 5 4 3 4 5 3 6 7 10 7 8 8 6 6 5 5 5 7 6 5 6 8 13 14 14 14 12 12 13 15
6 7 6 7 6 6 4 2 2 2 3 3 5 5 4 3 4 4 4 5 4 4 4 4 3 5 6 7 7 7 8 6 6 5 7 14 13 13 13 12 11 12 12
5 5 5 5 5 4 3 3 3 4 4 4 4 5 6 5 6 5 4 4 5 4 4 4 4 4 5 5 6 7 8 8 8 7 5 12 12 12 13 12 11 11 11
6 6 5 6 5 4 3 3 2 3 3 3 4 5 7 6 6 5 5 4 4 4 3 3 3 3 3 3 5 6 6 6 7 7 6 8 11 11 11 12 11 11 11
5 5 5 5 4 4 3 3 3 3 3 4 4 4 6 6 7 6 5 4 3 3 3 2 2 1 2 2 4 4 5 5 6 6 6 5 6 9 11 12 12 11 11
5 5 4 3 3 3 3 4 3 3 3 4 3 3 6 8 8 5 4 4 3 2 2 2 2 2 2 2 3 3 3 4 6 6 6 6 5 5 8 12 12 12 13
4 4 3 2 3 3 3 2 3 3 3 3 3 3 5 7 6 5 4 3 3 2 2 2 2 2 2 2 3 4 3 4 5 5 6 6 6 6 6 8 12 13 13
5 5 3 1 1 1 1 1 1 1 2 1 2 3 4 4 5 4 3 4 4 3 2 2 2 2 2 2 3 3 3 3 3 4 5 4 5 6 6 7 6 8 12
6 6 5 4 3 2 1 1 0 1 1 1 2 4 5 5 5 5 4 4 4 4 3 3 2 2 1 0 0 2 2 2 2 2 2 3 3 4 4 5 5 5 5
6 6 6 5 5 4 2 1 0 1 1 2 2 3 4 4 4 5 5 4 4 3 3 3 3 2 1 1 1 1 2 3 2 1 1 1 2 2 3 4 5 6 6
7 6 6 5 5 5 4 2 1 1 1 1 2 2 2 3 3 3 4 4 4 4 4 4 4 4 2 1 1 2 1 1 2 3 2 1 2 2 3 3 5 5 6
4 4 4 4 5 4 4 4 4 2 1 2 2 2 2 1 1 1 2 3 4 3 4 4 4 3 3 2 1 1 2 2 1 2 3 2 3 3 4 4 4 5 5
3 3 3 3 4 4 5 5 4 3 1 1 2 3 3 2 2 3 2 1 3 3 4 4 4 4 3 3 3 2 1 1 2 2 3 3 3 3 4 5 4 4 4
2 2 2 3 4 3 4 4 4 3 2 3 3 3 3 2 2 4 3 2 1 2 3 4 4 5 5 4 3 3 3 3 3 3 3 3 4 4 4 4 3 3 3
Wind_Direction
165 163 167 161 155 150 147 144 140 138 137 137 138 141 145 149 151 153 154 153 153 151 147 140 135 129 126 124 124 124 125 126 126 127 128 128 127 125 122 119 118 120 121
153 159 166 161 156 152 149 146 144 143 142 142 143 145 148 151 154 156 156 157 156 154 149 145 142 138 135 132 131 131 132 133 135 136 135 134 135 134 131 127 127 129 128
147 157 163 161 157 154 151 149 148 148 148 148 149 150 153 155 157 159 160 160 160 158 155 152 150 146 144 141 140 139 140 142 144 143 135 130 140 143 141 140 139 137 135
146 154 160 162 159 156 154 153 153 154 154 154 155 156 158 160 162 163 165 165 165 164 161 161 159 156 153 152 151 151 151 152 152 145 126 136 147 155 155 152 149 147 144
145 152 164 163 162 159 157 157 159 160 161 162 162 164 166 168 169 171 172 172 173 172 172 173 171 168 165 165 164 164 165 164 164 147 137 146 142 166 164 162 161 159 155
147 152 168 164 164 163 162 163 165 167 169 171 172 173 175 177 178 179 180 181 183 183 184 184 183 181 179 179 180 181 183 185 177 146 155 174 187 190 180 176 174 171 167
151 156 171 166 167 167 167 169 171 174 177 180 182 183 185 186 188 189 189 192 194 195 196 196 197 196 195 194 195 196 200 205 182 174 192 206 209 211 201 193 188 183 179
156 159 168 170 171 171 173 175 178 181 183 187 190 191 193 195 197 199 200 202 204 206 208 209 209 209 210 210 209 210 213 219 217 209 216 222 222 220 215 207 199 194 189
157 158 167 171 174 176 178 181 184 188 191 194 198 199 201 203 206 209 211 214 216 218 220 221 221 221 221 221 221 222 224 227 222 211 228 222 229 227 224 217 209 203 197
161 165 167 166 168 172 179 188 191 195 198 201 204 207 209 212 215 219 220 225 228 230 231 231 231 231 230 229 230 232 233 235 230 221 225 230 238 240 235 227 217 210 205
173 176 170 166 165 165 175 195 197 202 205 207 211 215 216 218 222 228 232 233 237 239 239 239 238 237 236 234 235 236 237 229 226 228 225 233 237 242 242 237 227 217 212
181 183 180 174 169 167 187 195 199 206 207 208 207 221 217 208 221 231 240 244 245 247 248 246 243 242 240 233 237 239 231 228 229 233 234 237 238 238 239 238 231 222 217
178 181 185 183 175 179 190 188 197 203 207 214 215 216 219 218 225 235 234 250 255 257 254 251 247 233 227 225 228 230 232 231 230 232 237 240 238 238 237 236 235 230 224
159 176 176 180 183 189 191 206 204 208 215 221 222 217 216 224 227 228 233 235 238 242 243 239 232 231 229 230 230 234 235 232 233 231 237 243 243 243 240 238 233 230 229
148 166 167 167 182 195 198 219 218 218 223 229 229 225 221 226 232 229 231 233 235 233 232 231 225 228 230 232 234 237 237 237 237 235 240 245 246 243 243 238 232 230 228
156 164 157 160 168 186 205 217 245 242 234 231 233 240 233 230 234 230 229 228 229 226 224 221 219 220 229 232 238 239 242 243 242 241 241 252 254 248 242 236 235 236 230
151 155 154 166 157 164 193 217 239 250 245 236 231 241 248 243 236 227 226 222 222 217 211 211 221 213 227 233 245 250 248 245 245 244 243 244 249 248 242 233 234 236 233
130 132 146 164 155 168 191 205 227 240 237 238 227 233 247 243 236 214 209 214 203 188 183 189 197 198 221 232 247 254 249 248 249 248 247 245 244 246 241 237 236 233 233
107 117 126 151 167 185 209 210 198 221 233 236 230 216 237 240 227 206 198 199 179 168 177 192 182 189 207 231 248 251 250 252 256 259 253 249 243 242 241 243 242 238 234
67 69 65 53 65 121 177 239 197 205 234 247 228 216 224 234 219 196 190 190 175 167 172 177 179 182 204 234 265 273 274 273 266 256 256 255 250 248 244 243 244 245 241
40 40 41 10 5 22 19 348 10 251 252 257 243 224 221 216 208 193 191 189 183 178 180 179 163 161 192 184 357 323 318 300 282 257 265 259 261 261 256 249 244 241 243
35 29 39 21 15 10 351 23 254 254 256 248 249 232 226 217 211 205 196 192 184 172 169 172 156 151 174 152 139 61 342 342 342 349 322 281 284 283 277 272 258 248 246
38 31 32 33 26 13 3 16 355 14 354 303 277 263 258 237 221 209 206 199 186 174 181 185 169 163 175 193 179 160 163 244 309 321 327 329 323 300 292 288 273 261 250
36 46 44 40 40 27 25 37 43 35 3 326 315 323 324 324 304 260 225 207 198 190 188 190 177 169 163 184 198 209 200 178 195 311 313 314 313 296 294 294 286 273 257
31 51 53 56 49 41 49 52 57 51 25 347 1 3 357 358 11 5 331 253 217 208 204 198 182 181 178 179 183 180 190 210 205 225 281 307 316 294 288 288 285 278 267
7 21 36 60 52 44 60 65 73 70 49 38 23 11 1 353 3 7 352 327 263 225 218 213 205 197 195 192 194 190 187 192 196 205 245 283 299 295 296 290 284 285 280